Location: Gisborne
(38.6530°S, 178.0040°E)
Time: 20:09:24
(UTC+13:00)

Cosmos 2315 Rocket - Pass Details

Date: 24 January 2019
Orbit: 966 x 1001 km, 82.9° (Epoch: 17 February)

Event Time Altitude Azimuth Distance (km) Brightness Sun altitude
Rises 21:57:16 0° 190° (S) 3,744 7.9 -15.2°
Reaches altitude 10° 21:59:50 10° 191° (S) 2,783 7.2 -15.5°
Maximum altitude 22:06:12 72° 274° (W) 1,041 4.2 -16.5°
Enters shadow 22:12:15 11° 357° (N) 2,662 5.9 -17.3°
